Theta_e
319 321 320 321 321 321 321 321 324 326 327 328 325 324 325 324 324 320 313 321 323 330 323 310 310 311 313 310 311 312 307 304 304 305 307 309 308 310 314 312 315 318 315 324 333
318 320 320 320 321 321 320 321 323 325 326 327 325 324 325 322 316 315 326 332 333 329 317 308 304 308 306 309 307 309 307 307 311 311 308 307 309 309 309 311 312 315 321 330 331
319 320 321 321 321 321 321 318 321 323 325 326 325 323 323 323 312 312 328 330 333 326 314 311 309 306 304 307 308 308 307 311 306 306 306 305 305 310 309 308 313 312 318 327 326
318 318 320 320 320 321 321 320 319 322 324 325 324 322 323 318 300 317 319 331 332 323 319 314 308 304 301 302 305 300 303 306 305 305 304 303 306 305 309 311 312 314 319 325 326
318 318 319 319 320 320 321 320 320 322 323 325 323 323 318 309 308 316 317 318 326 318 314 315 307 304 301 301 303 301 301 303 304 303 303 304 303 304 305 311 312 311 319 322 325
317 317 317 317 319 320 320 320 320 321 323 325 324 323 314 305 321 314 313 318 321 317 314 312 311 308 304 305 302 306 304 303 303 303 303 301 303 302 306 310 310 311 317 321 323
316 317 316 316 317 319 319 319 320 320 321 325 325 318 311 310 324 319 317 315 317 315 315 315 314 309 307 301 305 305 302 302 303 303 302 303 300 300 305 308 307 309 315 318 322
316 316 316 315 316 317 317 319 319 319 319 323 325 318 306 316 320 316 315 312 313 314 312 320 318 311 310 306 302 301 302 300 305 304 303 302 301 309 309 306 306 309 312 316 320
314 315 316 315 315 316 315 315 317 319 319 321 318 312 304 316 313 314 315 309 309 309 312 312 314 308 307 301 301 296 294 297 304 307 307 302 304 311 313 306 305 308 311 313 318
314 314 315 315 315 314 313 313 315 318 316 317 315 307 302 303 313 312 313 310 306 305 304 306 303 298 301 304 294 294 295 298 302 306 304 302 301 308 303 304 305 307 309 312 315
313 314 314 314 314 314 313 310 304 304 308 304 303 304 305 312 311 308 311 306 305 301 295 301 295 293 297 303 306 304 303 302 304 302 298 300 302 304 309 308 304 306 307 309 312
313 313 313 313 314 313 311 302 302 307 298 306 308 307 304 309 301 303 311 302 300 294 299 297 294 301 300 301 300 303 301 301 303 299 297 299 299 304 306 307 309 308 306 307 309
313 312 312 313 312 310 306 303 309 308 297 302 304 304 300 303 302 300 306 304 299 296 298 296 301 307 301 299 298 300 297 299 298 296 297 296 296 300 303 304 307 308 309 307 308
312 311 312 312 306 306 302 305 308 308 290 291 299 302 301 301 299 306 308 303 299 296 301 299 304 302 301 299 300 296 300 302 297 295 294 296 292 301 303 302 301 303 305 306 306
311 311 311 311 303 300 302 308 309 302 278 295 298 306 301 298 299 299 308 304 298 298 299 297 299 298 298 300 302 299 302 299 298 293 293 294 289 297 302 298 300 302 303 306 306
310 311 311 308 307 306 309 307 302 282 278 289 294 294 293 297 297 299 299 301 304 299 299 296 301 299 300 303 303 298 296 294 293 293 287 293 292 293 296 299 301 303 304 306 308
310 310 309 308 299 307 306 299 282 276 288 286 289 293 294 291 294 294 292 290 291 287 289 291 293 297 299 297 300 297 293 286 284 284 285 290 290 294 299 302 302 302 304 305 308
309 309 307 306 308 306 302 288 276 283 285 290 292 292 290 291 291 293 291 288 296 296 292 288 284 291 296 297 294 293 295 288 281 283 287 287 285 292 299 302 303 303 303 303 302
309 307 304 306 307 306 294 278 279 284 286 287 290 288 288 290 291 291 291 291 295 298 292 289 289 294 295 297 297 292 291 299 286 281 284 288 291 296 298 297 298 299 300 301 302
303 301 298 306 306 300 288 281 282 288 287 287 286 290 284 285 289 288 289 295 295 299 301 296 286 291 292 294 296 295 298 288 288 282 280 288 288 290 294 296 298 299 299 301 303
300 293 300 306 304 292 282 283 284 290 290 286 285 289 289 287 291 289 290 295 298 299 301 298 291 286 289 288 289 289 291 292 292 289 284 283 288 297 297 297 297 298 299 300 300
297 287 301 305 286 287 283 286 289 287 291 289 288 286 291 291 291 291 292 296 300 300 293 297 292 283 285 292 293 294 292 292 287 284 286 283 287 295 297 298 296 298 298 298 299
293 290 300 300 282 282 286 286 287 287 288 288 287 291 295 292 289 292 294 299 300 298 294 294 290 283 284 289 290 289 292 294 293 289 285 285 289 293 295 295 296 296 299 298 298
292 284 286 290 292 286 283 285 284 290 289 290 289 290 290 292 296 291 293 296 299 297 298 296 290 289 283 286 289 286 290 292 292 287 288 287 291 293 294 295 297 297 299 299 298
290 286 287 280 283 287 287 286 284 284 289 291 289 289 288 289 290 290 294 294 297 297 295 294 287 289 291 291 290 288 288 288 288 291 287 289 289 294 297 296 297 298 299 298 297
286 286 288 288 288 286 287 286 285 286 288 287 286 290 290 291 293 289 292 292 291 294 292 294 287 288 284 288 289 286 288 289 289 290 291 291 291 298 297 299 299 298 297 297 299
291 293 294 287 287 285 286 286 287 289 291 293 291 290 289 294 299 299 299 297 296 292 291 290 288 286 284 287 287 283 287 288 290 292 291 287 292 297 297 295 297 298 297 296 298
Wind_Speed
19 19 19 18 19 16 13 8 11 14 16 15 13 14 11 7 1 9 14 7 7 12 5 3 5 6 8 4 3 3 8 10 13 9 6 5 7 2 3 3 6 5 2 4 19
18 18 20 19 21 16 16 8 10 15 16 17 14 14 13 10 3 13 6 4 4 12 11 10 4 8 4 6 4 8 10 12 4 6 3 4 5 8 8 10 9 7 6 13 17
16 16 17 18 18 20 17 9 13 16 16 18 17 13 14 9 1 7 15 8 9 10 9 9 4 4 6 4 8 5 10 5 5 1 0 2 5 4 9 10 13 13 13 15 14
15 14 15 16 16 22 17 17 15 15 18 20 19 16 11 4 7 3 15 7 10 12 11 7 12 3 3 8 6 4 1 3 5 4 3 3 1 5 12 8 3 5 15 17 18
14 12 12 11 14 18 20 18 14 14 20 20 21 20 9 8 9 5 10 10 8 12 15 14 8 5 10 6 6 8 5 5 5 5 3 1 5 7 8 14 5 3 13 18 18
15 12 11 11 10 16 18 17 16 14 14 22 23 21 10 23 12 14 9 10 13 12 14 14 12 10 9 11 14 6 7 5 6 7 5 6 9 3 8 11 11 9 15 16 18
16 13 12 12 8 12 17 17 16 14 12 25 27 18 13 18 7 16 14 2 9 8 11 14 12 14 10 1 2 4 8 4 7 8 5 6 12 13 14 3 10 13 13 14 15
16 14 13 13 12 10 8 12 17 14 9 18 23 14 4 7 12 11 15 4 9 11 6 13 11 5 6 11 4 3 3 8 9 10 5 6 15 14 12 11 13 14 15 14 15
18 15 14 14 13 12 7 4 6 15 9 5 15 9 6 9 12 12 13 9 1 7 9 8 3 4 6 8 6 3 3 10 10 10 7 12 11 13 11 12 14 14 14 14 15
20 17 15 15 13 11 7 2 4 12 9 7 1 12 7 10 13 11 7 22 4 1 5 2 3 4 9 17 9 8 6 7 15 7 13 12 19 15 9 9 13 13 14 14 15
22 19 16 16 14 12 7 3 3 6 7 7 7 7 20 13 13 12 11 13 5 1 3 5 6 12 19 14 14 14 14 15 14 6 7 15 19 18 17 16 14 13 14 14 16
23 21 18 14 16 13 8 7 4 3 4 18 16 13 2 14 10 18 22 12 9 14 13 8 10 12 14 13 9 12 14 13 7 7 7 12 19 17 16 18 17 18 16 16 16
25 22 19 15 13 10 11 11 7 7 3 8 22 8 7 4 15 24 27 19 26 22 20 15 12 19 18 19 14 15 16 14 10 4 10 10 19 21 19 21 19 19 19 17 17
27 23 20 18 10 9 13 11 6 6 5 7 19 7 5 2 6 23 25 17 12 28 30 21 15 21 22 23 19 19 12 10 8 5 7 4 10 12 4 12 17 19 19 18 17
27 24 22 22 5 14 1 11 10 3 7 13 15 11 14 9 14 20 23 20 20 15 19 15 19 22 22 24 22 16 14 13 9 9 11 13 7 6 11 10 16 18 21 21 20
28 25 24 14 6 9 11 11 5 6 8 5 9 12 15 7 11 18 19 2 9 13 18 1 5 14 17 18 20 14 11 7 4 7 11 17 15 11 14 17 15 15 19 19 20
28 26 22 11 11 12 11 4 3 5 3 5 7 14 30 9 14 25 20 17 13 13 17 7 14 10 7 20 16 14 18 5 5 8 10 2 9 14 6 12 15 11 8 10 17
28 25 16 6 12 14 9 3 8 2 6 3 7 19 19 17 11 25 26 19 16 15 16 17 12 19 15 24 13 20 18 7 9 8 5 3 11 6 16 17 16 12 7 6 4
30 11 10 12 13 10 7 6 10 8 2 7 7 21 6 13 10 22 29 27 26 26 16 19 13 23 23 10 18 22 20 8 4 2 2 8 10 9 13 14 9 9 10 13 12
12 12 10 17 13 9 4 8 9 10 4 5 10 18 13 15 15 17 25 29 28 26 18 12 9 13 8 5 12 18 15 9 6 6 6 6 8 9 7 15 11 8 9 9 8
12 9 12 16 9 5 8 8 9 10 10 3 7 10 17 12 21 22 29 24 34 31 19 10 7 11 8 15 20 11 17 10 8 6 3 2 4 3 9 6 6 3 5 6 7
9 6 14 13 6 3 9 7 6 11 13 8 5 7 15 29 24 25 29 19 34 24 24 12 6 9 25 4 4 16 10 13 8 9 3 2 6 3 3 8 3 4 2 2 3
11 5 11 12 9 9 8 10 9 11 14 11 6 14 14 23 17 24 24 16 34 27 23 12 5 8 10 9 5 21 20 23 11 3 8 7 6 2 4 4 4 6 2 2 2
7 7 3 6 2 16 17 11 14 13 11 11 11 8 16 23 20 25 20 20 19 25 14 10 4 6 13 12 10 15 21 17 18 7 6 18 7 8 3 5 5 5 4 1 3
3 4 7 11 15 14 19 14 16 10 14 17 5 16 12 17 23 12 14 12 13 18 8 7 5 2 2 5 10 18 18 16 21 25 16 30 18 18 10 4 1 2 2 1 2
6 6 2 4 17 18 18 12 17 18 13 11 11 14 18 18 22 20 19 18 20 18 19 4 6 4 3 0 6 13 17 18 24 31 24 26 21 6 2 7 13 8 5 6 5
2 2 4 7 13 14 17 16 15 17 14 16 20 17 16 24 22 17 19 16 16 26 24 20 9 7 8 3 6 1 27 27 23 25 29 23 21 8 13 11 9 11 8 10 6
Wind_Direction
251 249 245 243 236 235 247 241 267 245 212 189 166 132 114 73 124 191 226 223 204 153 163 4 304 243 214 192 252 286 220 216 220 217 226 138 208 186 72 170 203 172 355 57 131
250 253 243 240 236 232 242 244 266 250 216 191 188 145 118 109 70 233 211 271 177 155 180 162 281 243 219 194 197 226 224 227 236 217 215 167 233 155 191 199 201 183 110 127 144
250 252 242 239 235 226 221 233 256 261 221 185 187 160 120 127 151 240 237 249 217 196 184 149 184 303 226 205 190 202 220 194 183 142 219 164 207 216 217 206 224 202 168 159 163
244 246 241 236 237 228 224 231 251 277 225 180 178 164 139 125 203 116 13 223 225 206 187 136 155 90 313 210 175 190 239 193 135 143 163 191 358 210 230 222 68 267 167 171 178
234 233 230 235 238 230 219 218 226 288 219 179 175 159 143 183 212 110 31 330 244 218 192 187 168 146 178 247 206 221 175 187 139 159 205 137 223 256 243 244 179 213 163 182 190
226 215 221 230 245 223 217 211 219 251 238 185 173 166 202 210 139 114 79 338 233 221 200 181 185 181 300 203 211 193 174 176 184 193 193 228 242 202 233 241 212 202 190 192 199
215 213 210 223 219 215 210 214 222 240 270 193 179 179 224 205 146 121 108 51 326 314 236 217 188 165 193 180 27 142 164 214 205 195 219 218 247 234 248 232 220 205 213 207 204
206 209 209 211 213 211 189 227 214 224 240 218 178 183 187 139 137 123 103 34 334 313 303 215 244 213 204 124 68 116 237 213 195 202 182 202 256 242 227 209 230 224 213 203 210
200 198 209 208 204 204 177 189 237 206 239 230 194 183 233 144 160 148 130 116 6 309 307 307 229 182 133 161 146 68 167 230 220 208 200 207 258 252 240 231 240 229 223 208 211
193 195 198 207 197 188 154 205 238 220 213 248 323 176 166 189 159 143 136 121 135 121 355 126 131 209 179 201 183 151 177 234 230 198 228 217 248 248 203 238 242 247 226 220 213
186 185 190 199 189 179 165 203 178 200 189 248 181 234 148 153 129 161 135 110 85 124 247 220 160 193 176 200 220 196 204 208 215 148 231 239 251 250 247 230 241 243 247 230 231
182 180 176 187 181 167 176 220 197 2 208 230 235 225 28 155 149 152 137 140 149 208 226 192 225 181 176 188 206 226 206 221 218 158 218 258 261 258 254 252 243 242 229 231 233
178 175 168 172 161 176 211 216 77 29 261 232 223 201 153 245 165 173 161 152 179 184 213 213 205 192 171 181 193 206 208 212 233 159 238 273 273 257 245 242 243 236 241 229 224
174 169 165 166 179 202 214 229 40 50 243 218 180 197 136 205 211 178 178 169 183 198 196 220 234 189 187 193 193 204 217 224 217 242 247 187 280 268 239 227 226 231 229 225 220
171 167 168 169 173 188 142 126 104 53 242 163 174 149 145 180 135 186 178 174 194 197 184 193 184 182 194 199 191 219 182 205 215 245 278 236 258 269 248 240 244 229 228 224 220
166 164 165 182 165 123 123 109 87 244 232 179 138 158 135 199 207 156 175 163 227 204 198 137 219 188 197 198 186 127 150 149 200 252 253 236 237 249 245 234 241 238 229 223 221
162 161 164 169 179 132 104 90 151 239 347 181 176 160 173 167 165 167 177 170 162 146 188 167 195 172 222 166 172 162 161 152 200 213 241 97 236 246 251 239 244 252 260 236 213
158 156 170 144 122 133 126 110 206 258 263 289 192 166 177 150 182 176 177 176 196 191 167 178 190 187 192 181 175 187 182 174 194 216 237 138 237 247 244 245 246 249 246 276 279
145 152 153 141 141 150 149 184 205 165 275 289 183 165 153 175 139 181 183 188 198 196 171 187 198 175 175 196 156 192 207 213 95 134 285 209 246 274 261 240 234 238 239 237 229
144 149 155 145 143 149 184 216 198 196 130 313 217 184 177 171 173 171 188 193 197 206 205 184 153 178 166 149 200 196 159 188 211 191 228 241 258 255 221 236 238 246 242 251 238
132 139 146 146 139 167 211 207 194 187 134 169 300 204 181 173 188 177 187 185 193 192 199 197 117 169 148 206 188 173 189 205 185 217 253 275 231 206 245 155 179 294 291 271 281
141 140 148 149 145 203 214 183 192 212 192 186 274 268 210 180 189 197 199 200 193 183 192 191 113 166 199 203 287 204 195 197 185 193 192 58 271 53 172 141 78 324 263 242 224
127 105 164 171 182 196 222 214 193 184 196 189 240 232 255 182 189 205 207 200 176 187 183 158 148 116 173 223 199 202 197 202 215 78 202 190 220 303 122 178 241 281 305 195 175
122 135 144 189 235 195 196 196 194 209 210 214 200 279 281 188 208 196 188 188 189 185 169 129 156 171 194 212 138 193 199 205 210 203 185 225 211 160 165 237 256 258 242 219 185
105 151 153 182 200 212 188 197 193 199 209 200 192 229 258 196 194 185 182 171 196 181 169 156 117 77 214 157 161 185 192 189 205 226 210 241 218 242 251 197 308 333 42 18 212
130 142 143 173 187 200 207 199 202 200 182 196 208 247 229 228 192 185 167 173 178 187 196 169 181 113 13 157 145 177 191 190 205 222 231 245 254 243 79 278 267 232 202 230 221
98 73 160 165 180 190 210 207 213 197 211 221 195 209 237 235 200 191 181 182 167 182 182 182 151 178 220 135 110 245 202 203 214 216 223 230 236 211 231 226 242 256 237 244 227